Location: Gleizolles
(44.4833°N, 6.7667°E)
Time: 14:57:04
(UTC+00:00)

Vanguard 1 - Pass Details

Date: 02 July 2024
Orbit: 650 x 3826 km, 34.3° (Epoch: 22 July)

Event Time Altitude Azimuth Distance (km) Brightness Sun altitude
Rises 04:15:10 0° 180° (S) 7,877 14.4 2.5°
Reaches altitude 10° 04:28:28 10° 150° (SSE) 6,273 14.2 4.6°
Maximum altitude 04:31:43 11° 140° (SE) 5,995 14.3 5.1°
Drops below altitude 10° 04:34:46 10° 130° (SE) 5,813 14.3 5.6°
Sets 04:44:17 0° 98° (E) 5,915 15.1 7.1°
